Hulianwang Jishu Shiyan W.

operational
NORAD ID: 65619 Int'l Des: 2025-209 Owner: ZXW Country: CN Constellation: xingwang
LEOCIRCULAR

About Hulianwang Jishu Shiyan W.

Description loading...

Live Position

Loading 3D Globe...

Upcoming Passes

Altitude History

Altitude vs Time

uPlot chart will show altitude changes over time

Two-Line Element Set

1 65619U 25209C 26062.13380138 -.00000046 00000-0 14639-3 0 9995
2 65619 50.0011 27.1501 0001551 187.1697 172.9158 13.41444872 23403
Epoch: Mar 3, 2026 • Age: 22 hours

Current Status

Altitude 1109.6 km
Velocity 7.30 km/s
Sub-Earth Point -24.47°S, 92.7°E
Launch Date Sep 16, 2025
Age 0.4 years
Type other

Technical Details

Classification Payload
Mass 300.00 kg
Dry Mass 300.00 kg
Total Mass 300.00 kg
Length 2.50 m
Diameter 0.80 m
Span 2.50 m
Shape Box + 2 Pan
Manufacturer WEINA
Phase Status In Orbit
Owner/State ZXW/CN

Large Constellations

Loading constellations...